30.06.2024;16:00;1
30.06.2024;15:00;2
30.06.2024;14:00;2
30.06.2024;13:00;2
30.06.2024;12:00;2
30.06.2024;11:00;2
30.06.2024;10:00;3
30.06.2024;09:00;5
30.06.2024;08:00;5
30.06.2024;07:00;3
30.06.2024;06:00;2
30.06.2024;05:00;2
30.06.2024;04:00;5
30.06.2024;03:00;17
30.06.2024;02:00;8
30.06.2024;01:00;7
30.06.2024;00:00;7
29.06.2024;23:00;5
29.06.2024;22:00;5
29.06.2024;21:00;4
29.06.2024;20:00;4
29.06.2024;19:00;3
29.06.2024;18:00;2
29.06.2024;17:00;2
29.06.2024;16:00;3
29.06.2024;15:00;3
29.06.2024;14:00;3
29.06.2024;13:00;3
29.06.2024;12:00;4
29.06.2024;11:00;4
29.06.2024;10:00;6
29.06.2024;09:00;8
29.06.2024;08:00;8
29.06.2024;07:00;8
29.06.2024;06:00;5
29.06.2024;05:00;8
29.06.2024;04:00;14
29.06.2024;03:00;20
29.06.2024;02:00;21
29.06.2024;01:00;11
29.06.2024;00:00;5
28.06.2024;23:00;3
28.06.2024;22:00;3
28.06.2024;21:00;3
28.06.2024;20:00;3
28.06.2024;19:00;2
28.06.2024;18:00;2
28.06.2024;17:00;2
